Regional Weather Roundup
Issued by NWS

Home | Current Version | Previous Version | Text Only | Print | Product List | Glossary Off
Versions: 1 2 3 4 5 6 7 8 9 10 11 12 13 14 15 16 17 18 19 20 21 22 23 24 25 26 27 28 29 30 31 32 33 34 35 36 37 38 39 40 41 42 43 44 45 46 47 48 49 50

000
ASUS45 KCYS 220310
RWRWY

WYOMING REGIONAL WEATHER ROUNDUP
NATIONAL WEATHER SERVICE CHEYENNE WY
800 PM MST SUN DEC 21 2014

NOTE:  "FAIR" INDICATES FEW OR NO CLOUDS BELOW 12,000 FEET
WITH NO SIGNIFICANT WEATHER AND/OR OBSTRUCTIONS TO VISIBILITY.

WYZ001-220400-
YELLOWSTONE NATIONAL PARK

CITY           SKY/WX    TMP DP  RH WIND       PRES   REMARKS
LK YELLOWSTONE   N/A     23  18  81 W9G18     29.78R WCI  13
W YELLOWSTONE  NOT AVBL

$$
WYZ002>013-054>058-071-098>099-220400-
NORTHERN WYOMING

CITY           SKY/WX    TMP DP  RH WIND       PRES   REMARKS
JACKSON        CLOUDY    36  21  55 VRB7      29.80S WCI  30
CODY           CLOUDY    34  30  86 NW23G35   29.69R WCI  22
GREYBULL       FAIR      31  31 100 S5        29.66R WCI  26
WORLAND        CLOUDY    37  31  78 W5        29.65F WCI  33
SHERIDAN       CLOUDY    41  23  48 NW31G38   29.58R
BUFFALO        CLOUDY    37  23  56 N16G25    29.58R WCI  28
GILLETTE       MOCLDY    35  30  82 NW18G29   29.55R WCI  24
HULETT           N/A    N/A N/A N/A MISG        N/A
NEWCASTLE      MOCLDY    34  32  93 NW15      29.52R WCI  24

$$
WYZ014>020-022>026-101>103-220400-
CENTRAL WYOMING

CITY           SKY/WX    TMP DP  RH WIND       PRES   REMARKS
BIG PINEY      CLOUDY    33  27  78 NW16      29.79S WCI  23
PINEDALE       FAIR      28  23  80 NW12      29.79R WCI  18
DUBOIS         NOT AVBL
LANDER         FAIR      34  22  61 W12       29.67S WCI  25
RIVERTON       FAIR      36  20  52 NW23G33   29.67R WCI  24
CASPER         FAIR      31  28  89 SW8       29.65R WCI  23
DOUGLAS        FAIR      33  32  96 NW9       29.61R WCI  25

$$
WYZ021-027>030-104>119-220400-
SOUTHERN WYOMING

CITY           SKY/WX    TMP DP  RH WIND       PRES   REMARKS
EVANSTON       MIX PCPN  35  32  88 W14       29.93R WCI  26
KEMMERER       CLOUDY    34  30  86 W30G39    29.85S WCI  20
FORT BRIDGER   CLOUDY    36  35  99 W30G43    29.88F WCI  22
ROCK SPRINGS   MIX PCPN  35  29  78 W26G45    29.78R WCI  22
DIXON          FLURRIES  37  31  80 W36G45    29.79R WCI  23
RAWLINS        FAIR      33  27  78 NW17      29.71R WCI  22
SARATOGA       CLOUDY    34  30  86 NW24G33   29.71R WCI  21
LARAMIE        FAIR      33  27  78 NW24G35   29.60R WCI  20
CHEYENNE       FAIR      37  30  75 N20G33    29.58R WCI  27
TORRINGTON     CLOUDY   N/A N/A N/A NW38G48   29.57R
PINE BLUFFS    RAIN      36  34  93 NW29G37   29.58R WCI  23

$$



USA.gov is the U.S. government's official web portal to all federal, state and local government web resources and services.